Regional Weather Roundup
Issued by NWS

Home | Current Version | Previous Version | Text Only | Print | Product List | Glossary On
Versions: 1 2 3 4 5 6 7 8 9 10 11 12 13 14 15 16 17 18 19 20 21 22 23 24 25 26 27 28 29 30 31 32 33 34 35 36 37 38 39 40 41 42 43 44 45 46 47 48 49 50
000
ASUS45 KABQ 191110
RWRNM
NEW MEXICO REGIONAL WEATHER ROUNDUP
NATIONAL WEATHER SERVICE ALBUQUERQUE NM
500 AM MDT THU OCT 19 2017

NOTE: "FAIR" MEANS FEW OR NO CLOUDS BELOW 12,000 FEET AGL WITH NO
       SIGNIFICANT WEATHER OR OBSTRUCTIONS TO VISION.

      THIS PRODUCT IS RELEASED AS TWO VERSIONS.  ONE VERSION NEAR
      THE TOP OF THE HOUR CONTAINING PRELIMINARY DATA FROM ALBUQUERQUE
      AND OTHER STATIONS.  A FINAL VERSION WITH ADDITIONAL DATA IS
      ISSUED ABOUT 10 MINUTES AFTER THE HOUR.

NMZ501-503-504-510>518-191200-
NORTHWEST PLATEAU/NORTHCENTRAL MOUNTAINS

CITY           SKY/WX    TMP DP  RH WIND       PRES   REMARKS
FARMINGTON     FAIR      44  25  47 E8        30.12F
LOS ALAMOS     FAIR      55  16  21 CALM      30.23S
SANTA FE       FAIR      45  24  43 N10       30.18S
TAOS           FAIR      32  17  54 N8        30.26R WCI  25
ANGEL FIRE     FAIR      19  16  89 CALM      30.33S

$$
NMZ402-403-502-505>509-191200-
WESTCENTRAL MOUNTAINS/SOUTHWEST MOUNTAINS

CITY           SKY/WX    TMP DP  RH WIND       PRES   REMARKS
GALLUP         CLOUDY    43  23  45 CALM      30.18S
GRANTS         FAIR      38  26  60 NW5       30.20S WCI  35
SILVER CITY    FAIR      54  45  71 N3        30.12F

$$
NMZ407-409-411-412-191200-
SOUTHERN DESERTS

CITY           SKY/WX    TMP DP  RH WIND       PRES   REMARKS
DEMING         FAIR      54  46  74 NE5       30.08S
LAS CRUCES     CLOUDY    60  49  67 CALM      30.09S
HOLLOMAN AFB   FAIR      64  50  59 SE7       30.09S
ALAMOGORDO     FAIR      59  48  67 S3        30.08F
T OR C         FAIR      59  45  59 CALM      30.09S

$$
NMZ519>523-191200-
CENTRAL VALLEYS/CENTRAL HIGHLANDS

CITY           SKY/WX    TMP DP  RH WIND       PRES   REMARKS
ALBUQUERQUE    CLOUDY    52  26  36 N8        30.13S
MORIARTY ARPT  FAIR      38  32  79 CALM      30.19S
CLINES CORNERS FAIR      49  21  33 NE7       30.21S
BELEN          FAIR      49  29  44 CALM      30.13R
SOCORRO        FAIR      51  36  55 CALM      30.11R

$$
NMZ524>526-539-540-191200-
SOUTHCENTRAL MOUNTAINS

CITY           SKY/WX    TMP DP  RH WIND       PRES   REMARKS
RUIDOSO        FAIR      54  39  58 W8        30.23R

$$
NMZ527>531-191200-
NORTHEAST HIGHLANDS/NORTHEAST PLAINS

CITY           SKY/WX    TMP DP  RH WIND       PRES   REMARKS
LAS VEGAS      FAIR      38  26  62 NE8       30.21S WCI  32
RATON          FAIR      37  26  64 NE8       30.18F WCI  31
CLAYTON        FAIR      49  39  68 W12       30.09S

$$
NMZ532>537-191200-
EASTCENTRAL PLAINS

CITY           SKY/WX    TMP DP  RH WIND       PRES   REMARKS
SANTA ROSA     FAIR      47  35  62 NE3       30.08S
CANNON AFB     CLEAR     50  50 100 NE3       30.08S
CLOVIS AIRPORT FAIR      47  45  93 E6        30.08S

$$
NMZ028-029-538-191200-
SOUTHEAST PLAINS

CITY           SKY/WX    TMP DP  RH WIND       PRES   REMARKS
ROSWELL        FAIR      54  48  80 NW3       30.03R
ARTESIA        FAIR      55  46  71 S6        30.03S
CARLSBAD       FAIR      54  51  90 CALM      30.01S
HOBBS          FAIR      50  45  81 SE6       30.05S


$$



USA.gov is the U.S. government's official web portal to all federal, state and local government web resources and services.